| time (UTC) | temp F | wind direction | speed knots | gust knots | rain 1hr in | rain 24hr in | rain mn in | humidity % | barometer mb |
| 20260508060227 | 61 | 269 | 5.2 | 10.4 | 0.00 | 0.00 | 0.00 | 36 | 1013.4 |
| 20260508055226 | 61 | 306 | 4.3 | 10.4 | 0.00 | 0.00 | 0.00 | 36 | 1013.3 |
| 20260508054719 | 60 | 253 | 4.3 | 8.7 | 0.00 | 0.00 | 0.00 | 37 | 1013.3 |
| 20260508054212 | 60 | 273 | 4.3 | 8.7 | 0.00 | 0.00 | 0.00 | 37 | 1013.4 |
| 20260508053927 | 59 | 265 | 2.6 | 7.8 | 0.00 | 0.00 | 0.00 | 38 | 1013.4 |
| 20260508053200 | 58 | 272 | 1.7 | 7.0 | 0.00 | 0.00 | 0.00 | 39 | 1013.4 |
| 20260508052653 | 59 | 254 | 0.9 | 2.6 | 0.00 | 0.00 | 0.00 | 39 | 1013.3 |
| 20260508052148 | 60 | 281 | 0.9 | 2.6 | 0.00 | 0.00 | 0.00 | 40 | 1013.3 |
| 20260508051641 | 60 | 249 | 0.9 | 3.5 | 0.00 | 0.00 | 0.00 | 40 | 1013.3 |
| 20260508051135 | 60 | 321 | 0.9 | 3.5 | 0.00 | 0.00 | 0.00 | 40 | 1013.2 |
| 20260508050629 | 61 | 326 | 1.7 | 7.0 | 0.00 | 0.00 | 0.00 | 40 | 1013.2 |
| 20260508050123 | 61 | 328 | 2.6 | 7.0 | 0.00 | 0.00 | 0.00 | 38 | 1013.2 |
| 20260508045620 | 61 | 337 | 1.7 | 5.2 | 0.00 | 0.00 | 0.00 | 37 | 1013.2 |
| 20260508045111 | 62 | 290 | 1.7 | 4.3 | 0.00 | 0.00 | 0.00 | 35 | 1013.3 |
| 20260508044829 | 62 | 309 | 2.6 | 7.0 | 0.00 | 0.00 | 0.00 | 34 | 1013.3 |
| 20260508044100 | 62 | 310 | 2.6 | 7.0 | 0.00 | 0.00 | 0.00 | 33 | 1013.3 |
| 20260508043553 | 63 | 334 | 3.5 | 9.6 | 0.00 | 0.00 | 0.00 | 32 | 1013.2 |
| 20260508043047 | 63 | 347 | 3.5 | 9.6 | 0.00 | 0.00 | 0.00 | 31 | 1013.3 |
| 20260508042818 | 63 | 342 | 3.5 | 9.6 | 0.00 | 0.00 | 0.00 | 29 | 1013.2 |
| 20260508042314 | 64 | 289 | 4.3 | 10.4 | 0.00 | 0.00 | 0.00 | 29 | 1013.2 |
| 20260508041530 | 64 | 309 | 5.2 | 10.4 | 0.00 | 0.00 | 0.00 | 28 | 1013.2 |
| 20260508041024 | 64 | 292 | 5.2 | 10.4 | 0.00 | 0.00 | 0.00 | 27 | 1013.2 |
| 20260508040749 | 64 | 242 | 5.2 | 11.3 | 0.00 | 0.00 | 0.00 | 27 | 1013.0 |
| 20260508040013 | 65 | 313 | 5.2 | 11.3 | 0.00 | 0.00 | 0.00 | 26 | 1013.0 |
| 20260508035237 | 65 | 279 | 5.2 | 10.4 | 0.00 | 0.00 | 0.00 | 26 | 1012.8 |
| 20260508035233 | 65 | 312 | 5.2 | 13.9 | 0.00 | 0.00 | 0.00 | 26 | 1012.8 |
| 20260508033947 | 64 | 286 | 4.3 | 10.4 | 0.00 | 0.00 | 0.00 | 26 | 1012.8 |
| 20260508033441 | 64 | 279 | 3.5 | 7.0 | 0.00 | 0.00 | 0.00 | 27 | 1012.8 |
| 20260508032935 | 64 | 271 | 2.6 | 6.1 | 0.00 | 0.00 | 0.00 | 27 | 1012.8 |
| 20260508032430 | 65 | 304 | 2.6 | 7.0 | 0.00 | 0.00 | 0.00 | 26 | 1012.8 |
| 20260508031923 | 66 | 286 | 2.6 | 8.7 | 0.00 | 0.00 | 0.00 | 26 | 1012.8 |
| 20260508031417 | 67 | 293 | 3.5 | 8.7 | 0.00 | 0.00 | 0.00 | 25 | 1012.7 |
| 20260508030912 | 67 | 300 | 4.3 | 8.7 | 0.00 | 0.00 | 0.00 | 25 | 1012.7 |
| 20260508030408 | 67 | 266 | 5.2 | 9.6 | 0.00 | 0.00 | 0.00 | 24 | 1012.7 |
| 20260508025859 | 68 | 303 | 5.2 | 10.4 | 0.00 | 0.00 | 0.00 | 24 | 1012.6 |
| 20260508025630 | 69 | 311 | 5.2 | 10.4 | 0.00 | 0.00 | 0.00 | 24 | 1012.6 |
| 20260508024847 | 69 | 304 | 6.1 | 10.4 | 0.00 | 0.00 | 0.00 | 24 | 1012.4 |
| 20260508024400 | 69 | 287 | 6.1 | 11.3 | 0.00 | 0.00 | 0.00 | 24 | 1012.3 |
| 20260508023329 | 70 | 331 | 6.1 | 12.2 | 0.00 | 0.00 | 0.00 | 23 | 1012.3 |
| 20260508022823 | 71 | 241 | 5.2 | 11.3 | 0.00 | 0.00 | 0.00 | 24 | 1012.2 |
| 20260508022317 | 71 | 272 | 5.2 | 12.2 | 0.00 | 0.00 | 0.00 | 24 | 1012.2 |
| 20260508021811 | 71 | 219 | 6.1 | 12.2 | 0.00 | 0.00 | 0.00 | 23 | 1012.2 |
| 20260508021316 | 72 | 251 | 6.1 | 13.9 | 0.00 | 0.00 | 0.00 | 24 | 1012.2 |
| 20260508020812 | 72 | 321 | 6.1 | 13.9 | 0.00 | 0.00 | 0.00 | 24 | 1012.2 |
| 20260508020311 | 72 | 275 | 6.1 | 12.2 | 0.00 | 0.00 | 0.00 | 23 | 1012.3 |
| 20260508015811 | 72 | 269 | 7.0 | 12.2 | 0.00 | 0.00 | 0.00 | 24 | 1012.2 |
| 20260508015311 | 72 | 292 | 7.0 | 14.8 | 0.00 | 0.00 | 0.00 | 23 | 1012.3 |
| 20260508014812 | 73 | 279 | 7.0 | 14.8 | 0.00 | 0.00 | 0.00 | 23 | 1012.3 |
| 20260508014538 | 73 | 252 | 7.0 | 13.0 | 0.00 | 0.00 | 0.00 | 24 | 1012.4 |
| 20260508014050 | 74 | 269 | 7.0 | 14.8 | 0.00 | 0.00 | 0.00 | 23 | 1012.4 |
| 20260508013311 | 74 | 248 | 7.8 | 15.6 | 0.00 | 0.00 | 0.00 | 24 | 1012.3 |
| 20260508012811 | 74 | 261 | 7.8 | 15.6 | 0.00 | 0.00 | 0.00 | 22 | 1012.4 |
| 20260508012311 | 75 | 255 | 7.0 | 12.2 | 0.00 | 0.00 | 0.00 | 24 | 1012.3 |
| 20260508011811 | 75 | 281 | 7.0 | 13.9 | 0.00 | 0.00 | 0.00 | 24 | 1012.4 |
| 20260508011310 | 75 | 267 | 7.8 | 15.6 | 0.00 | 0.00 | 0.00 | 23 | 1012.4 |
| 20260508010810 | 75 | 336 | 7.8 | 15.6 | 0.00 | 0.00 | 0.00 | 21 | 1012.3 |
| 20260508010309 | 75 | 223 | 7.8 | 13.0 | 0.00 | 0.00 | 0.00 | 23 | 1012.4 |
| 20260508005809 | 75 | 301 | 7.8 | 14.8 | 0.00 | 0.00 | 0.00 | 21 | 1012.3 |
| 20260508005550 | 75 | 300 | 7.8 | 18.2 | 0.00 | 0.00 | 0.00 | 21 | 1012.3 |
| 20260508004819 | 75 | 292 | 8.7 | 20.0 | 0.00 | 0.00 | 0.00 | 20 | 1012.3 |
| 20260508004318 | 76 | 250 | 7.8 | 20.0 | 0.00 | 0.00 | 0.00 | 20 | 1012.2 |
| 20260508003816 | 76 | 269 | 7.0 | 15.6 | 0.00 | 0.00 | 0.00 | 19 | 1012.2 |
| 20260508003344 | 76 | 282 | 7.0 | 14.8 | 0.00 | 0.00 | 0.00 | 19 | 1012.1 |
| 20260508003340 | 76 | 279 | 7.8 | 14.8 | 0.00 | 0.00 | 0.00 | 19 | 1012.1 |
| 20260508002301 | 76 | 254 | 7.8 | 17.4 | 0.00 | 0.00 | 0.00 | 20 | 1012.0 |
| 20260508001815 | 76 | 246 | 8.7 | 17.4 | 0.00 | 0.00 | 0.00 | 20 | 1012.0 |
| 20260508001334 | 77 | 263 | 7.8 | 15.6 | 0.00 | 0.00 | 0.00 | 19 | 1011.9 |
| 20260508001329 | 76 | 234 | 7.8 | 15.6 | 0.00 | 0.00 | 0.00 | 19 | 1012.0 |
| 20260508001042 | 76 | 316 | 8.7 | 17.4 | 0.00 | 0.00 | 0.00 | 20 | 1011.9 |
| 20260507235756 | 76 | 265 | 8.7 | 17.4 | 0.00 | 0.00 | 0.00 | 19 | 1011.9 |
| 20260507235257 | 77 | 326 | 7.8 | 19.1 | 0.00 | 0.00 | 0.00 | 19 | 1011.9 |
| 20260507234834 | 78 | 293 | 7.8 | 19.1 | 0.00 | 0.00 | 0.00 | 21 | 1011.8 |
| 20260507234820 | 77 | 296 | 7.8 | 19.1 | 0.00 | 0.00 | 0.00 | 19 | 1011.8 |
| 20260507233755 | 77 | 288 | 7.8 | 19.1 | 0.00 | 0.00 | 0.00 | 19 | 1011.8 |
| 20260507233311 | 78 | 254 | 7.8 | 14.8 | 0.00 | 0.00 | 0.00 | 18 | 1011.9 |
| 20260507232758 | 77 | 267 | 8.7 | 17.4 | 0.00 | 0.00 | 0.00 | 19 | 1011.9 |
| 20260507232255 | 78 | 303 | 8.7 | 17.4 | 0.00 | 0.00 | 0.00 | 18 | 1011.9 |
| 20260507231754 | 77 | 283 | 9.6 | 17.4 | 0.00 | 0.00 | 0.00 | 19 | 1011.8 |
| 20260507231248 | 77 | 294 | 8.7 | 17.4 | 0.00 | 0.00 | 0.00 | 19 | 1011.9 |
| 20260507230742 | 77 | 236 | 8.7 | 16.5 | 0.00 | 0.00 | 0.00 | 19 | 1011.9 |
| 20260507230236 | 76 | 314 | 9.6 | 15.6 | 0.00 | 0.00 | 0.00 | 20 | 1011.9 |
| 20260507225730 | 77 | 269 | 9.6 | 15.6 | 0.00 | 0.00 | 0.00 | 19 | 1012.0 |
| 20260507225224 | 77 | 284 | 8.7 | 15.6 | 0.00 | 0.00 | 0.00 | 20 | 1012.2 |
| 20260507224718 | 77 | 298 | 8.7 | 16.5 | 0.00 | 0.00 | 0.00 | 19 | 1012.2 |
| 20260507224213 | 77 | 241 | 8.7 | 16.5 | 0.00 | 0.00 | 0.00 | 19 | 1012.2 |
| 20260507223709 | 77 | 276 | 8.7 | 17.4 | 0.00 | 0.00 | 0.00 | 19 | 1012.3 |
| 20260507223200 | 78 | 267 | 8.7 | 17.4 | 0.00 | 0.00 | 0.00 | 19 | 1012.4 |
| 20260507222654 | 78 | 252 | 7.8 | 14.8 | 0.00 | 0.00 | 0.00 | 20 | 1012.4 |
| 20260507222148 | 78 | 338 | 7.8 | 13.9 | 0.00 | 0.00 | 0.00 | 21 | 1012.6 |
| 20260507221642 | 78 | 305 | 7.0 | 13.0 | 0.00 | 0.00 | 0.00 | 21 | 1012.6 |
| 20260507221138 | 78 | 348 | 6.1 | 13.0 | 0.00 | 0.00 | 0.00 | 22 | 1012.7 |
| 20260507220630 | 78 | 289 | 6.1 | 13.0 | 0.00 | 0.00 | 0.00 | 22 | 1012.6 |
| 20260507220125 | 78 | 339 | 7.0 | 13.0 | 0.00 | 0.00 | 0.00 | 22 | 1012.7 |
| 20260507215618 | 78 | 239 | 7.0 | 13.0 | 0.00 | 0.00 | 0.00 | 21 | 1012.7 |
| 20260507215112 | 78 | 345 | 7.0 | 13.9 | 0.00 | 0.00 | 0.00 | 23 | 1012.7 |
| 20260507214609 | 78 | 247 | 7.0 | 13.9 | 0.00 | 0.00 | 0.00 | 22 | 1012.7 |
| 20260507214100 | 78 | 350 | 6.1 | 13.9 | 0.00 | 0.00 | 0.00 | 22 | 1012.8 |
| 20260507213555 | 78 | 288 | 6.1 | 13.9 | 0.00 | 0.00 | 0.00 | 23 | 1012.8 |
| 20260507213048 | 78 | 244 | 5.2 | 11.3 | 0.00 | 0.00 | 0.00 | 22 | 1012.7 |
| 20260507212543 | 78 | 281 | 5.2 | 11.3 | 0.00 | 0.00 | 0.00 | 25 | 1012.8 |
| 20260507212035 | 78 | 350 | 7.0 | 13.9 | 0.00 | 0.00 | 0.00 | 24 | 1012.8 |
| 20260507211531 | 78 | 284 | 6.1 | 13.0 | 0.00 | 0.00 | 0.00 | 25 | 1012.8 |
| 20260507211027 | 78 | 355 | 5.2 | 11.3 | 0.00 | 0.00 | 0.00 | 25 | 1012.8 |
| 20260507210522 | 77 | 286 | 5.2 | 9.6 | 0.00 | 0.00 | 0.00 | 26 | 1012.9 |
| 20260507210247 | 77 | 340 | 5.2 | 12.2 | 0.00 | 0.00 | 0.00 | 25 | 1013.0 |
| 20260507205509 | 77 | 313 | 6.1 | 12.2 | 0.00 | 0.00 | 0.00 | 22 | 1013.0 |
| 20260507205232 | 77 | 290 | 5.2 | 12.2 | 0.00 | 0.00 | 0.00 | 21 | 1013.1 |
| 20260507204454 | 77 | 325 | 5.2 | 12.2 | 0.00 | 0.00 | 0.00 | 21 | 1013.2 |
| 20260507204209 | 76 | 324 | 6.1 | 14.8 | 0.00 | 0.00 | 0.00 | 21 | 1013.2 |
| 20260507203442 | 76 | 351 | 6.1 | 14.8 | 0.00 | 0.00 | 0.00 | 20 | 1013.2 |
| 20260507203227 | 76 | 337 | 5.2 | 12.2 | 0.00 | 0.00 | 0.00 | 21 | 1013.3 |
| 20260507202436 | 75 | 275 | 4.3 | 9.6 | 0.00 | 0.00 | 0.00 | 22 | 1013.3 |
| 20260507201937 | 75 | 355 | 4.3 | 11.3 | 0.00 | 0.00 | 0.00 | 20 | 1013.3 |
| 20260507201436 | 75 | 333 | 3.5 | 11.3 | 0.00 | 0.00 | 0.00 | 21 | 1013.4 |
| 20260507200934 | 75 | 274 | 2.6 | 9.6 | 0.00 | 0.00 | 0.00 | 24 | 1013.5 |
| 20260507200436 | 74 | 32 | 2.6 | 7.8 | 0.00 | 0.00 | 0.00 | 25 | 1013.5 |
| 20260507195934 | 74 | 269 | 3.5 | 8.7 | 0.00 | 0.00 | 0.00 | 24 | 1013.5 |
| 20260507195717 | 74 | 18 | 2.6 | 8.7 | 0.00 | 0.00 | 0.00 | 26 | 1013.6 |
| 20260507194941 | 74 | 13 | 1.7 | 8.7 | 0.00 | 0.00 | 0.00 | 28 | 1013.6 |
| 20260507194440 | 73 | 0 | 1.7 | 5.2 | 0.00 | 0.00 | 0.00 | 29 | 1013.6 |
| 20260507193938 | 73 | 69 | 2.6 | 7.0 | 0.00 | 0.00 | 0.00 | 27 | 1013.8 |
| 20260507193441 | 73 | 203 | 3.5 | 7.0 | 0.00 | 0.00 | 0.00 | 27 | 1013.8 |
| 20260507192940 | 73 | 200 | 3.5 | 7.8 | 0.00 | 0.00 | 0.00 | 28 | 1013.8 |
| 20260507192501 | 73 | 271 | 3.5 | 7.8 | 0.00 | 0.00 | 0.00 | 29 | 1013.9 |
| 20260507191713 | 72 | 260 | 4.3 | 9.6 | 0.00 | 0.00 | 0.00 | 29 | 1014.0 |
| 20260507190931 | 72 | 294 | 3.5 | 8.7 | 0.00 | 0.00 | 0.00 | 30 | 1014.0 |
| 20260507190458 | 72 | 267 | 3.5 | 8.7 | 0.00 | 0.00 | 0.00 | 30 | 1014.2 |
| 20260507190454 | 72 | 260 | 3.5 | 7.8 | 0.00 | 0.00 | 0.00 | 29 | 1014.1 |
| 20260507185430 | 71 | 282 | 3.5 | 8.7 | 0.00 | 0.00 | 0.00 | 30 | 1014.2 |
| 20260507184930 | 71 | 276 | 1.7 | 7.0 | 0.00 | 0.00 | 0.00 | 33 | 1014.2 |
| 20260507184430 | 70 | 346 | 2.6 | 5.2 | 0.00 | 0.00 | 0.00 | 35 | 1014.3 |
| 20260507183929 | 70 | 0 | 3.5 | 7.8 | 0.00 | 0.00 | 0.00 | 35 | 1014.4 |
| 20260507183431 | 69 | 315 | 1.7 | 7.8 | 0.00 | 0.00 | 0.00 | 36 | 1014.4 |
| 20260507182927 | 69 | 355 | 1.7 | 5.2 | 0.00 | 0.00 | 0.00 | 37 | 1014.5 |
| 20260507182424 | 69 | 317 | 1.7 | 5.2 | 0.00 | 0.00 | 0.00 | 36 | 1014.5 |
| 20260507181924 | 69 | 345 | 1.7 | 3.5 | 0.00 | 0.00 | 0.00 | 37 | 1014.5 |
| 20260507181712 | 69 | 67 | 1.7 | 5.2 | 0.00 | 0.00 | 0.00 | 37 | 1014.5 |
| 20260507180922 | 69 | 343 | 1.7 | 5.2 | 0.00 | 0.00 | 0.00 | 38 | 1014.6 |
| 20260507180711 | 68 | 344 | 1.7 | 5.2 | 0.00 | 0.00 | 0.00 | 40 | 1014.6 |
| 20260507175920 | 68 | 119 | 2.6 | 5.2 | 0.00 | 0.00 | 0.00 | 39 | 1014.7 |
| 20260507175420 | 68 | 118 | 1.7 | 7.0 | 0.00 | 0.00 | 0.00 | 40 | 1014.7 |
| 20260507174919 | 68 | 148 | 1.7 | 7.0 | 0.00 | 0.00 | 0.00 | 40 | 1014.8 |
| 20260507174427 | 67 | 113 | 2.6 | 7.0 | 0.00 | 0.00 | 0.00 | 41 | 1014.8 |
| 20260507174145 | 67 | 135 | 2.6 | 7.0 | 0.00 | 0.00 | 0.00 | 41 | 1015.0 |
| 20260507173421 | 67 | 355 | 1.7 | 5.2 | 0.00 | 0.00 | 0.00 | 43 | 1015.0 |
| 20260507172918 | 66 | 0 | 0.9 | 4.3 | 0.00 | 0.00 | 0.00 | 43 | 1015.0 |
| 20260507172418 | 65 | 306 | 1.7 | 4.3 | 0.00 | 0.00 | 0.00 | 44 | 1015.0 |
| 20260507171917 | 66 | 13 | 1.7 | 4.3 | 0.00 | 0.00 | 0.00 | 42 | 1015.1 |
| 20260507171417 | 66 | 121 | 2.6 | 4.3 | 0.00 | 0.00 | 0.00 | 43 | 1015.1 |
| 20260507170911 | 65 | 263 | 1.7 | 5.2 | 0.00 | 0.00 | 0.00 | 44 | 1015.1 |
| 20260507170649 | 65 | 232 | 0.9 | 5.2 | 0.00 | 0.00 | 0.00 | 45 | 1015.1 |
| 20260507165859 | 65 | 221 | 1.7 | 5.2 | 0.00 | 0.00 | 0.00 | 47 | 1015.1 |
| 20260507165354 | 64 | 221 | 1.7 | 5.2 | 0.00 | 0.00 | 0.00 | 47 | 1015.1 |
| 20260507164848 | 64 | 255 | 0.9 | 3.5 | 0.00 | 0.00 | 0.00 | 47 | 1015.2 |
| 20260507164341 | 64 | 202 | 1.7 | 7.0 | 0.00 | 0.00 | 0.00 | 48 | 1015.1 |
| 20260507163837 | 64 | 223 | 1.7 | 7.0 | 0.00 | 0.00 | 0.00 | 48 | 1015.2 |
| 20260507163330 | 63 | 255 | 1.7 | 4.3 | 0.00 | 0.00 | 0.00 | 49 | 1015.1 |
| 20260507162823 | 63 | 239 | 1.7 | 5.2 | 0.00 | 0.00 | 0.00 | 49 | 1015.1 |
| 20260507162317 | 62 | 53 | 2.6 | 5.2 | 0.00 | 0.00 | 0.00 | 51 | 1015.1 |
| 20260507161811 | 62 | 321 | 1.7 | 5.2 | 0.00 | 0.00 | 0.00 | 51 | 1015.1 |
| 20260507161308 | 62 | 316 | 0.9 | 4.3 | 0.00 | 0.00 | 0.00 | 51 | 1015.1 |
| 20260507160803 | 61 | 348 | 2.6 | 7.0 | 0.00 | 0.00 | 0.00 | 52 | 1015.2 |
| 20260507160254 | 62 | 277 | 2.6 | 7.0 | 0.00 | 0.00 | 0.00 | 52 | 1015.2 |
| 20260507155747 | 61 | 355 | 1.7 | 7.0 | 0.00 | 0.00 | 0.00 | 54 | 1015.3 |
| 20260507155241 | 61 | 17 | 1.7 | 7.0 | 0.00 | 0.00 | 0.00 | 54 | 1015.3 |
| 20260507154735 | 61 | 32 | 1.7 | 7.8 | 0.00 | 0.00 | 0.00 | 54 | 1015.3 |
| 20260507154232 | 60 | 346 | 1.7 | 7.8 | 0.00 | 0.00 | 0.00 | 56 | 1015.3 |
| 20260507153723 | 60 | 325 | 0.9 | 4.3 | 0.00 | 0.00 | 0.00 | 57 | 1015.3 |
| 20260507153218 | 60 | 0 | 1.7 | 4.3 | 0.00 | 0.00 | 0.00 | 57 | 1015.3 |
| 20260507152951 | 60 | 9 | 0.9 | 4.3 | 0.00 | 0.00 | 0.00 | 57 | 1015.3 |
| 20260507152434 | 60 | 124 | 0.9 | 2.6 | 0.00 | 0.00 | 0.00 | 58 | 1015.3 |
| 20260507151700 | 59 | 124 | 0.9 | 4.3 | 0.00 | 0.00 | 0.00 | 59 | 1015.3 |
| 20260507151155 | 59 | 124 | 1.7 | 5.2 | 0.00 | 0.00 | 0.00 | 60 | 1015.3 |
| 20260507150935 | 58 | 277 | 0.9 | 5.2 | 0.00 | 0.00 | 0.00 | 60 | 1015.4 |
| 20260507150141 | 58 | 327 | 1.7 | 3.5 | 0.00 | 0.00 | 0.00 | 60 | 1015.3 |
| 20260507145916 | 58 | 346 | 1.7 | 3.5 | 0.00 | 0.00 | 0.00 | 60 | 1015.3 |
| 20260507145129 | 57 | 346 | 0.9 | 7.0 | 0.00 | 0.00 | 0.00 | 62 | 1015.4 |
| 20260507144623 | 57 | 300 | 1.7 | 7.0 | 0.00 | 0.00 | 0.00 | 62 | 1015.4 |
| 20260507144122 | 56 | 306 | 2.6 | 8.7 | 0.00 | 0.00 | 0.00 | 63 | 1015.4 |
| 20260507143621 | 56 | 335 | 3.5 | 8.7 | 0.00 | 0.00 | 0.00 | 64 | 1015.4 |
| 20260507143121 | 55 | 292 | 3.5 | 7.8 | 0.00 | 0.00 | 0.00 | 66 | 1015.3 |
| 20260507142622 | 55 | 316 | 2.6 | 7.8 | 0.00 | 0.00 | 0.00 | 68 | 1015.3 |
| 20260507142414 | 53 | 298 | 0.9 | 4.3 | 0.00 | 0.00 | 0.00 | 70 | 1015.3 |
| 20260507141902 | 53 | 194 | 0.9 | 4.3 | 0.00 | 0.00 | 0.00 | 67 | 1015.3 |
| 20260507141124 | 53 | 65 | 0.9 | 2.6 | 0.00 | 0.00 | 0.00 | 68 | 1015.2 |
| 20260507140621 | 52 | 63 | 0.0 | 1.7 | 0.00 | 0.00 | 0.00 | 69 | 1015.2 |
| 20260507140128 | 52 | 63 | 0.0 | 0.9 | 0.00 | 0.00 | 0.00 | 70 | 1015.2 |
| 20260507135653 | 52 | 63 | 0.0 | 0.0 | 0.00 | 0.00 | 0.00 | 69 | 1015.1 |
| 20260507134626 | 51 | 61 | 0.0 | 1.7 | 0.00 | 0.00 | 0.00 | 68 | 1015.0 |
| 20260507134125 | 52 | 61 | 0.0 | 1.7 | 0.00 | 0.00 | 0.00 | 68 | 1014.8 |
| 20260507133625 | 52 | 61 | 0.0 | 1.7 | 0.00 | 0.00 | 0.00 | 67 | 1014.8 |
| 20260507133123 | 53 | 58 | 0.0 | 0.0 | 0.00 | 0.00 | 0.00 | 65 | 1014.8 |
| 20260507132618 | 53 | 58 | 0.0 | 0.0 | 0.00 | 0.00 | 0.00 | 64 | 1014.7 |
| 20260507132355 | 54 | 58 | 0.0 | 1.7 | 0.00 | 0.00 | 0.00 | 63 | 1014.7 |
| 20260507131622 | 54 | 58 | 0.9 | 2.6 | 0.00 | 0.00 | 0.00 | 61 | 1014.7 |
| 20260507131118 | 55 | 57 | 1.7 | 4.3 | 0.00 | 0.00 | 0.00 | 60 | 1014.7 |
| 20260507130620 | 56 | 53 | 2.6 | 7.0 | 0.00 | 0.00 | 0.00 | 58 | 1014.7 |
| 20260507130120 | 56 | 326 | 3.5 | 8.7 | 0.00 | 0.00 | 0.00 | 58 | 1014.6 |
| 20260507125617 | 56 | 302 | 3.5 | 8.7 | 0.00 | 0.00 | 0.00 | 57 | 1014.6 |
| 20260507125123 | 56 | 310 | 4.3 | 11.3 | 0.00 | 0.00 | 0.00 | 56 | 1014.5 |
| 20260507124621 | 57 | 319 | 5.2 | 11.3 | 0.00 | 0.00 | 0.00 | 56 | 1014.5 |
| 20260507124119 | 57 | 336 | 5.2 | 10.4 | 0.00 | 0.00 | 0.00 | 56 | 1014.3 |
| 20260507123615 | 57 | 293 | 6.1 | 12.2 | 0.00 | 0.00 | 0.00 | 56 | 1014.3 |
| 20260507123116 | 57 | 284 | 6.1 | 12.2 | 0.00 | 0.00 | 0.00 | 55 | 1014.3 |
| 20260507122625 | 58 | 274 | 6.1 | 11.3 | 0.00 | 0.00 | 0.00 | 55 | 1014.3 |
| 20260507122614 | 57 | 259 | 6.1 | 12.2 | 0.00 | 0.00 | 0.00 | 55 | 1014.3 |
| 20260507121614 | 58 | 294 | 6.1 | 11.3 | 0.00 | 0.00 | 0.00 | 55 | 1014.4 |
| 20260507121115 | 58 | 318 | 6.1 | 13.0 | 0.00 | 0.00 | 0.00 | 54 | 1014.3 |
| 20260507120858 | 58 | 284 | 6.1 | 13.0 | 0.00 | 0.00 | 0.00 | 54 | 1014.4 |
| 20260507120122 | 58 | 304 | 6.1 | 11.3 | 0.00 | 0.00 | 0.00 | 55 | 1014.4 |
| 20260507115851 | 58 | 281 | 6.1 | 11.3 | 0.00 | 0.00 | 0.00 | 54 | 1014.4 |
| 20260507115116 | 57 | 278 | 5.2 | 11.3 | 0.00 | 0.00 | 0.00 | 56 | 1014.4 |
| 20260507114614 | 58 | 331 | 6.1 | 10.4 | 0.00 | 0.00 | 0.00 | 57 | 1014.5 |
| 20260507114341 | 58 | 275 | 6.1 | 11.3 | 0.00 | 0.00 | 0.00 | 58 | 1014.5 |
| 20260507113842 | 58 | 288 | 6.1 | 11.3 | 0.00 | 0.00 | 0.00 | 57 | 1014.6 |
| 20260507113100 | 58 | 310 | 5.2 | 11.3 | 0.00 | 0.00 | 0.00 | 56 | 1014.6 |
| 20260507112553 | 58 | 295 | 5.2 | 10.4 | 0.00 | 0.00 | 0.00 | 56 | 1014.5 |
| 20260507112046 | 58 | 283 | 5.2 | 10.4 | 0.00 | 0.00 | 0.00 | 54 | 1014.7 |
| 20260507111816 | 58 | 286 | 5.2 | 11.3 | 0.00 | 0.00 | 0.00 | 56 | 1014.7 |
| 20260507111034 | 57 | 257 | 4.3 | 11.3 | 0.00 | 0.00 | 0.00 | 55 | 1014.6 |
| 20260507110804 | 56 | 299 | 2.6 | 9.6 | 0.00 | 0.00 | 0.00 | 60 | 1014.6 |
| 20260507110022 | 56 | 301 | 3.5 | 7.8 | 0.00 | 0.00 | 0.00 | 62 | 1014.6 |
| 20260507105518 | 55 | 293 | 2.6 | 7.0 | 0.00 | 0.00 | 0.00 | 64 | 1014.7 |
| 20260507105011 | 55 | 301 | 1.7 | 4.3 | 0.00 | 0.00 | 0.00 | 65 | 1014.7 |
| 20260507104738 | 54 | 317 | 1.7 | 6.1 | 0.00 | 0.00 | 0.00 | 65 | 1014.7 |
| 20260507104234 | 54 | 313 | 1.7 | 6.1 | 0.00 | 0.00 | 0.00 | 66 | 1014.7 |
| 20260507103457 | 54 | 319 | 0.9 | 3.5 | 0.00 | 0.00 | 0.00 | 67 | 1014.6 |
| 20260507102946 | 54 | 355 | 0.0 | 3.5 | 0.00 | 0.00 | 0.00 | 67 | 1014.6 |
| 20260507102440 | 54 | 269 | 0.0 | 1.7 | 0.00 | 0.00 | 0.00 | 67 | 1014.8 |
| 20260507101939 | 54 | 267 | 0.0 | 1.7 | 0.00 | 0.00 | 0.00 | 66 | 1014.7 |
| 20260507101429 | 55 | 267 | 0.0 | 3.5 | 0.00 | 0.00 | 0.00 | 66 | 1014.7 |
| 20260507100923 | 55 | 267 | 0.0 | 3.5 | 0.00 | 0.00 | 0.00 | 65 | 1014.8 |
| 20260507100417 | 55 | 269 | 0.0 | 2.6 | 0.00 | 0.00 | 0.00 | 65 | 1014.8 |
| 20260507095910 | 56 | 269 | 0.9 | 3.5 | 0.00 | 0.00 | 0.00 | 65 | 1014.8 |
| 20260507095405 | 56 | 275 | 0.9 | 3.5 | 0.00 | 0.00 | 0.00 | 64 | 1014.8 |
| 20260507094859 | 56 | 279 | 0.9 | 4.3 | 0.00 | 0.00 | 0.00 | 63 | 1015.0 |
| 20260507094613 | 57 | 277 | 2.6 | 5.2 | 0.00 | 0.00 | 0.00 | 63 | 1015.0 |
| 20260507093846 | 57 | 253 | 1.7 | 5.2 | 0.00 | 0.00 | 0.00 | 62 | 1015.0 |
| 20260507093341 | 57 | 252 | 1.7 | 6.1 | 0.00 | 0.00 | 0.00 | 62 | 1015.0 |
| 20260507092834 | 58 | 269 | 3.5 | 10.4 | 0.00 | 0.00 | 0.00 | 61 | 1015.0 |
| 20260507092329 | 57 | 273 | 2.6 | 10.4 | 0.00 | 0.00 | 0.00 | 62 | 1015.1 |
| 20260507091822 | 56 | 283 | 0.9 | 5.2 | 0.00 | 0.00 | 0.00 | 63 | 1015.0 |
| 20260507091316 | 57 | 290 | 0.9 | 2.6 | 0.00 | 0.00 | 0.00 | 64 | 1015.1 |
| 20260507090812 | 57 | 306 | 0.9 | 3.5 | 0.00 | 0.00 | 0.00 | 64 | 1015.1 |
| 20260507090304 | 58 | 311 | 1.7 | 5.2 | 0.00 | 0.00 | 0.00 | 63 | 1015.1 |
| 20260507090029 | 58 | 290 | 1.7 | 6.1 | 0.00 | 0.00 | 0.00 | 63 | 1015.2 |
| 20260507085514 | 58 | 300 | 1.7 | 6.1 | 0.00 | 0.00 | 0.00 | 62 | 1015.2 |
| 20260507084747 | 58 | 311 | 2.6 | 6.1 | 0.00 | 0.00 | 0.00 | 61 | 1015.2 |
| 20260507084241 | 58 | 310 | 2.6 | 7.8 | 0.00 | 0.00 | 0.00 | 61 | 1015.2 |
| 20260507083734 | 58 | 287 | 2.6 | 7.8 | 0.00 | 0.00 | 0.00 | 61 | 1015.3 |
| 20260507083230 | 58 | 271 | 2.6 | 6.1 | 0.00 | 0.00 | 0.00 | 61 | 1015.3 |
| 20260507082730 | 58 | 274 | 2.6 | 6.1 | 0.00 | 0.00 | 0.00 | 61 | 1015.2 |
| 20260507082230 | 58 | 276 | 2.6 | 7.0 | 0.00 | 0.00 | 0.00 | 62 | 1015.2 |
| 20260507082016 | 58 | 265 | 2.6 | 7.8 | 0.00 | 0.00 | 0.00 | 62 | 1015.3 |
| 20260507081228 | 58 | 281 | 3.5 | 7.8 | 0.00 | 0.00 | 0.00 | 62 | 1015.2 |
| 20260507081021 | 58 | 266 | 3.5 | 7.0 | 0.00 | 0.00 | 0.00 | 63 | 1015.2 |
| 20260507080229 | 58 | 246 | 2.6 | 7.0 | 0.00 | 0.00 | 0.00 | 64 | 1015.3 |
| 20260507075728 | 58 | 259 | 2.6 | 8.7 | 0.00 | 0.00 | 0.00 | 65 | 1015.3 |
| 20260507075228 | 58 | 250 | 3.5 | 8.7 | 0.00 | 0.00 | 0.00 | 65 | 1015.4 |
| 20260507074728 | 58 | 248 | 3.5 | 7.8 | 0.00 | 0.00 | 0.00 | 66 | 1015.5 |
| 20260507074514 | 58 | 295 | 3.5 | 7.8 | 0.00 | 0.00 | 0.00 | 65 | 1015.5 |
| 20260507073728 | 58 | 258 | 2.6 | 7.8 | 0.00 | 0.00 | 0.00 | 65 | 1015.5 |
| 20260507073229 | 59 | 291 | 3.5 | 7.8 | 0.00 | 0.00 | 0.00 | 65 | 1015.5 |
| 20260507072728 | 59 | 291 | 3.5 | 8.7 | 0.00 | 0.00 | 0.00 | 65 | 1015.5 |
| 20260507072228 | 59 | 299 | 4.3 | 8.7 | 0.00 | 0.00 | 0.00 | 65 | 1015.5 |
| 20260507072014 | 59 | 302 | 3.5 | 8.7 | 0.00 | 0.00 | 0.00 | 64 | 1015.5 |
| 20260507071230 | 60 | 300 | 4.3 | 9.6 | 0.00 | 0.00 | 0.00 | 64 | 1015.5 |
| 20260507070726 | 60 | 281 | 3.5 | 9.6 | 0.00 | 0.00 | 0.00 | 63 | 1015.5 |
| 20260507070226 | 60 | 286 | 4.3 | 8.7 | 0.00 | 0.00 | 0.00 | 63 | 1015.5 |
| 20260507065727 | 60 | 306 | 5.2 | 11.3 | 0.00 | 0.00 | 0.00 | 63 | 1015.6 |
| 20260507065226 | 60 | 300 | 5.2 | 11.3 | 0.00 | 0.00 | 0.00 | 62 | 1015.6 |
| 20260507064726 | 61 | 292 | 7.0 | 12.2 | 0.00 | 0.00 | 0.00 | 62 | 1015.6 |
| 20260507064233 | 61 | 300 | 7.0 | 12.2 | 0.00 | 0.00 | 0.00 | 61 | 1015.5 |
| 20260507063726 | 61 | 294 | 6.1 | 10.4 | 0.00 | 0.00 | 0.00 | 61 | 1015.6 |
| 20260507063227 | 61 | 265 | 6.1 | 9.6 | 0.00 | 0.00 | 0.00 | 61 | 1015.7 |
| 20260507062725 | 61 | 304 | 6.1 | 9.6 | 0.00 | 0.00 | 0.00 | 61 | 1015.6 |
| 20260507062227 | 61 | 292 | 6.1 | 11.3 | 0.00 | 0.00 | 0.00 | 61 | 1015.6 |
| 20260507061947 | 61 | 325 | 6.1 | 11.3 | 0.00 | 0.00 | 0.00 | 61 | 1015.6 |
| 20260507061726 | 61 | 325 | 6.1 | 11.3 | 0.00 | 0.00 | 0.00 | 61 | 1015.6 |
| 20260507061225 | 61 | 294 | 7.0 | 12.2 | 0.00 | 0.00 | 0.00 | 60 | 1015.6 |
| 20260507060726 | 61 | 288 | 7.0 | 12.2 | 0.00 | 0.00 | 0.00 | 60 | 1015.6 |